Flag for Canada Weather past 2 weeks in Pond Inlet, Nunavut, Canada

Now
41 °F

Light rain. Mostly cloudy.


Feels Like: 41 °F
Forecast: 38 / 45 °F
Wind: No wind

Location: Pond Inlet

Current Time: Jul 2, 2015 at 6:08:44 AM

Latest Report: Jul 2, 2015 at 5:00 AM


Visibility: 9 mi

Pressure: 29.93 "Hg

Humidity: 87%

Dew point: 37 °F

Location of Pond InletLocation

Historic Weather in Pond Inlet — Graph

°F

Pond Inlet temperature yesterday

Maximum temperature yesterday: 50 °F (at 4:00 PM)
Minimum temperature yesterday: 43 °F (at 4:00 AM)
Average temperature yesterday: 47 °F

Past Weeks' High & Low Weather Summary

 TemperatureHumidityPressure
High59 °F (Jun 28, 4:00 PM)100% (Jun 17, 11:48 PM)30.06 "Hg (Jun 17, 11:48 PM)
Low34 °F (Jun 17, 5:00 AM)27% (Jun 28, 12:00 PM)29.58 "Hg (Jun 20, 7:00 PM)
Average42 °F69%29.79 "Hg
* Reported Jun 17 5:00 AM — Jul 2 5:00 AM, Pond Inlet, Weather by CustomWeather, © 2015

Note: Actual official high and low records may vary slightly from our data, if they occured in-between our weather recording intervals... More about our weather records

Advertising

Pond Inlet weather history for previous 24 hours

 ConditionsComfort  
Time TempWeatherWind HumidityBarometerVisibility
5:00 AM
Thu, Jul 2
41 °FLight rain. Mostly cloudy.No wind87%29.93 "Hg9 mi
4:00 AM37 °FOvercast.No wind87%29.94 "Hg9 mi
3:00 AM45 °FOvercast.6 mph76%29.93 "Hg9 mi
2:00 AM43 °FOvercast.5 mph81%29.94 "Hg9 mi
1:00 AM41 °FOvercast.3 mph81%29.94 "Hg9 mi
12:00 AM45 °FPartly sunny.2 mph76%29.93 "Hg9 mi
11:00 PM
Wed, Jul 1
45 °FPassing clouds.2 mph76%29.93 "Hg9 mi
10:00 PM46 °FSunny.2 mph71%29.93 "Hg9 mi
9:00 PM48 °FSunny.2 mph71%29.93 "Hg9 mi
8:00 PM48 °FSunny.2 mph66%29.94 "Hg8 mi
7:00 PM48 °FSunny.3 mph66%29.94 "Hg6 mi
6:00 PM48 °FSunny.3 mph66%29.94 "Hg9 mi
5:00 PM48 °FSunny.No wind66%29.94 "Hg9 mi
4:53 PM48 °FSunny.6 mph66%29.94 "Hg9 mi
4:00 PM50 °FSunny.7 mph62%29.93 "Hg9 mi
3:00 PM46 °FSunny.5 mph71%29.93 "Hg8 mi
2:00 PM48 °FScattered clouds.5 mph66%29.93 "Hg9 mi
1:00 PM48 °FOvercast.3 mph66%29.93 "Hg9 mi
12:00 PM48 °FOvercast.3 mph66%29.93 "Hg9 mi
11:00 AM46 °FOvercast.3 mph71%29.93 "Hg9 mi
10:00 AM46 °FOvercast.3 mph66%29.94 "Hg9 mi
9:00 AM43 °FOvercast.No wind81%29.93 "Hg9 mi
8:00 AM45 °FOvercast.3 mph71%29.93 "Hg9 mi
7:00 AM46 °FOvercast.2 mph66%29.92 "Hg9 mi
6:00 AM45 °FOvercast.5 mph71%29.92 "Hg9 mi
Weather by CustomWeather, © 2015

See weather overviewHow to use our weather pages